Regional Weather Roundup
Issued by NWS

Home | Current Version | Previous Version | Graphics & Text | Print | Product List | Glossary On
Versions: 1 2 3 4 5 6 7 8 9 10 11 12 13 14 15 16 17 18 19 20 21 22 23 24 25 26 27
000
ASUS45 KTFX 270410
RWRMT
MONTANA REGIONAL WEATHER ROUNDUP
NATIONAL WEATHER SERVICE GREAT FALLS MT
900 PM MST SUN FEB 26 2017

NOTE: "FAIR" INDICATES FEW OR NO CLOUDS BELOW 12000 FEET WITH NO
SIGNIFICANT WEATHER AND/OR OBSTRUCTIONS TO VISIBILITY.

MTZ001>007-043-270500-
WEST OF THE DIVIDE

CITY           SKY/WX    TMP DP  RH WIND       PRES   REMARKS
KALISPELL      LGT SNOW  19  13  77 N22       29.63S WCI   2
MISSOULA       LGT SNOW  29  28  96 E3        29.60S FOG
BUTTE          CLOUDY    22  10  60 S10       29.53F WCI  11
MULLAN PASS    LGT SNOW  16  15  96 CALM      29.47S FOG
ANACONDA         N/A     23  18  80 S6        29.54S WCI  16
DEER LODGE       N/A     25  18  74 S7        29.57S WCI  17
EUREKA           N/A     19  16  86 E3        29.68S
HAMILTON         N/A     27  25  93 SE12      29.58  WCI  16
LIBBY            N/A     25  23  93 CALM      29.64R
PLAINS           N/A     28  23  81 CALM      29.65S
RONAN            N/A     24  21  88 S15       29.66S WCI  11
THOMPSON FALLS   N/A     28  26  92 CALM      29.69S
$$

MTZ008-052>055-270500-
SOUTHWEST MONTANA

CITY           SKY/WX    TMP DP  RH WIND       PRES   REMARKS
BOZEMAN        CLOUDY    26  19  74 NE5       29.60S
DILLON         CLOUDY    23   8  52 SW5       29.56F
W YELLOWSTONE  LGT SNOW  16  14  93 S7        29.60S WCI   6
ENNIS          CLOUDY    25   9  50 S18G26    29.63S WCI  11
$$

MTZ009-010-012-014-046-048-049-054-270500-
EAST SLOPES AND CENTRAL MONTANA

CITY           SKY/WX    TMP DP  RH WIND       PRES   REMARKS
CUT BANK       CLOUDY    12   8  84 N12       29.72S WCI  -2
GREAT FALLS    FLURRIES  16  13  88 NE8       29.70S WCI   5
MALMSTROM AFB  FLURRIES  16  15  97 N9        29.72S WCI   4
HELENA         LGT SNOW  18  16  92 W9        29.65S FOG     WCI   7
AUGUSTA        FLURRIES   8   6  91 N10       29.66S WCI  -6
BOWMANS CRNR   LGT SNOW  11  10  92 N8        29.65S WCI   0
CHOTEAU          N/A     12  10  92 N9        29.72S FOG     WCI   0
CONRAD           N/A     15  12  88 NW7       29.77S WCI   5
POWER          LGT SNOW  15  12  88 NE8       29.70S WCI   4
RAYNESFORD     LGT SNOW  16  12  85 SE8       29.67S WCI   5
ULM            LGT SNOW  17  15  93 MISG      29.70S
$$

MTZ011-013-016-021-045-047-050-051-270500-
NORTH CENTRAL MONTANA

CITY           SKY/WX    TMP DP  RH WIND       PRES   REMARKS
HAVRE          LGT SNOW  20  16  84 N9        29.78F FOG     WCI   9
LEWISTOWN      LGT SNOW  17  14  88 E8        29.65S FOG     WCI   7
N BAR RANCH    LGT SNOW  16  12  86 NE9       29.67S WCI   4
CHINOOK          N/A     19  16  86 N6        29.80S WCI  11
DENTON         LGT SNOW  17  15  92 N9        29.67S WCI   6
FORT BENTON      N/A     19  16  86 MISG      29.77S
GEYSER         LGT SNOW  15  13  92 NE7       29.67S WCI   5
GRASS RANGE    LGT SNOW  17  16  95 E8        29.65F WCI   7
JUDITH GAP     LGT SNOW  15  12  90 N15       29.61S WCI  -1
ROY            LGT SNOW  18  16  93 MISG      29.68F
STANFORD       LGT SNOW  14  13  93 NE7       29.65S FOG     WCI   4
WINIFRED       FLURRIES  16  15  95 NE12      29.68F WCI   3
$$

MTZ017>020-022>027-061-062-270500-
NORTHEAST MONTANA

CITY           SKY/WX    TMP DP  RH WIND       PRES   REMARKS
GLASGOW        CLOUDY    17  12  80 E5        29.80R
JORDAN           N/A     21  14  74 E8        29.76S WCI  11
SIDNEY         CLOUDY    22  17  81 N6        29.82R WCI  14
WOLF POINT       N/A     12   8  84 W3        29.83S
PLENTYWOOD       N/A     12   9  85 NW5       29.78S
POPLAR           N/A     14  10  85 W3        29.83S
SCOBEY           N/A      7  -2  66 CALM      29.77R
$$

MTZ028>42-056>058-270500-
SOUTHCENTRAL AND SOUTHEAST MONTANA

CITY           SKY/WX    TMP DP  RH WIND       PRES   REMARKS
BAKER          CLOUDY    20  16  84 E8        29.76F WCI  10
BILLINGS       MOCLDY    26  20  77 NE6       29.63F WCI  19
LIVINGSTON     CLOUDY    27  11  51 SW22      29.56S WCI  13
MILES CITY     CLOUDY    25  16  68 E10       29.75S WCI  15
BIG TIMBER     CLOUDY    27  12  54 W5        29.61S
EKALAKA          N/A     21  15  78 E3        29.72F
FORSYTH          N/A     27  18  69 E12       29.73S WCI  16
HARLOWTON      FLURRIES  19  16  88 N13       29.61S WCI   5
LAUREL           N/A     26  18  72 N3        29.64F
ROUNDUP          N/A     22  17  81 N10       29.62S WCI  11
$$

REGIONAL REPORTS...DAKOTAS

CITY           SKY/WX    TMP DP  RH WIND       PRES   REMARKS
WILLISTON      CLOUDY    20  14  77 W6        29.81S WCI  12
MINOT          MOCLDY    16  11  80 SW8       29.81R WCI   5
DICKINSON        N/A     12   8  84 CALM      29.77S
BEACH            N/A    N/A N/A N/A MISG        N/A
CROSBY         MOCLDY    18  16  93 W10       29.81S WCI   6
TIOGA            N/A     10  10 100 W6        29.80S WCI   1
WATFORD CITY   FLURRIES  14  10  85 SW3       29.80F
BISMARCK         N/A     14  11  87 CALM      29.86R
GRAND FORKS      N/A      7  -1  70 SW6       29.90R WCI  -3
FARGO          CLOUDY    20  12  71 S6        29.91R WCI  12
BUFFALO SD       N/A     22  18  85 NE8       29.69F WCI  12
RAPID CITY       N/A     25  18  74 NW6       29.76S WCI  18
$$

REGIONAL REPORTS...WYOMING/IDAHO/WASHINGTON

CITY           SKY/WX    TMP DP  RH WIND       PRES   REMARKS
GILLETTE         N/A     22  12  65 S9        29.67S WCI  12
SHERIDAN       MOCLDY    23  16  74 S12       29.65S WCI  12
BUFFALO WY       N/A     21   4  47 W5        29.64F
CODY             N/A     22  11  62 S12       29.62F WCI  10
YELLOWSTONE LA   N/A     10   8  92 VRB3      29.58F
IDAHO FALLS    CLOUDY    26  17  68 S6        29.67F WCI  19
SALMON         CLOUDY    28  16  59 E8        29.60S WCI  20
BOISE            N/A     31  25  78 E10       29.67F WCI  22
SPOKANE        FLURRIES  29  27  92 CALM      29.64S
$$

REGIONAL REPORTS...ALBERTA

CITY           SKY/WX    TMP DP  RH WIND       PRES   REMARKS
EDMONTON       CLEAR      3  -2  78 SW6       29.79F WCI  -8
CALGARY        FLURRIES   9   3  78 S9        29.74F WCI  -5
LETHBRIDGE     LGT SNOW  12   7  79 N6        29.79F WCI   3
MEDICINE HAT   CLEAR     10   3  72 N8        29.85S WCI  -1
WATERTON GATE    N/A      9   3  78 N7          N/A  WCI  -3
CARDSTON         N/A      9   5  85 S1          N/A
MILK RIVER       N/A     12  10  92 N7          N/A  WCI   2
$$

REGIONAL REPORTS...SASKATCHEWAN

CITY           SKY/WX    TMP DP  RH WIND       PRES   REMARKS
SWIFT CURRENT  FLURRIES   7   3  85 N10       29.77R WCI  -8
REGINA         CLEAR      7   0  72 NW15G22   29.80R WCI -11
SASKATOON      CLEAR     -6 -11  77 NW7       29.87S WCI -20
VAL MARIE        N/A     14  10  85 N5          N/A
ROCKGLEN         N/A     10   7  85 N13         N/A  WCI  -5
$$




USA.gov is the U.S. government's official web portal to all federal, state and local government web resources and services.